Overview Statistics Trail Chart Weather Telemetry Raw packets
 

This is the latest recevied weather packets stored in our database for station/object DC2ML-11. If no packets are shown the sender has not sent any weather packets the latest 10 day(s).

<< 31 32 33 34 35 36 37 >>
Time Temp. Humidity Pressure Rain* Wind** Luminosity Snow
1787900740 23.89° C 65% 1009.3 hPa - - - -
1787899840 23.89° C 65% 1009.3 hPa - - - -
1787898940 23.89° C 63% 1009 hPa - - - -
1787898039 23.89° C 64% 1008.8 hPa - - - -
1787897139 23.89° C 63% 1008.9 hPa - - - -
1787896239 23.89° C 62% 1009.1 hPa - - - -
1787895338 24.44° C 60% 1009.1 hPa - - - -
1787894447 23.89° C 61% 1008.9 hPa - - - -
1787893546 23.89° C 61% 1008.5 hPa - - - -
1787892646 23.89° C 58% 1008.3 hPa - - - -
1787891746 23.89° C 59% 1008 hPa - - - -
1787890846 23.89° C 59% 1008.2 hPa - - - -
1787889946 23.89° C 61% 1007.9 hPa - - - -
1787889046 23.89° C 60% 1007.7 hPa - - - -
1787888146 24.44° C 60% 1008.2 hPa - - - -
1787887246 24.44° C 57% 1008.4 hPa - - - -
1787886346 24.44° C 57% 1008.7 hPa - - - -
1787885445 25° C 56% 1009 hPa - - - -
1787884545 25° C 56% 1008.9 hPa - - - -
1787883645 25° C 56% 1009.1 hPa - - - -
1787882745 25° C 56% 1009.2 hPa - - - -
1787881845 25° C 56% 1008.9 hPa - - - -
1787880945 25.56° C 56% 1008.9 hPa - - - -
1787880044 25.56° C 56% 1008.9 hPa - - - -
1787879144 25.56° C 56% 1008.9 hPa - - - -

* Rain since midnight (hover to see other rain measurements)
** Current wind speed in m/s (hover to see current wind gust speed)